This demonstration page uses our WeatherBlox Daily Observations layout. Learn more.

Left ArrowRight Arrow

44.8408, -93.29828

Hourly Observations for July 12, 2019

Temp ( °F °C ) Dew Point ( °F °C ) Humidity (%) Winds ( mph kmh ) Pressure ( in mb ) Visibility ( mi km ) Precip ( " mm )
12:53 am 00:53 Clear 73 22.8 61 16.1 66 66 S 7 11 29.92 1013 10 16 0.00 0.00
1:53 am 01:53 Clear 70 21.1 61 16.1 73 73 SSE 5 7 29.92 1013 10 16 0.00 0.00
2:53 am 02:53 Clear 69 20.6 61 16.1 76 76 S 3 6 29.93 1013 10 16 0.00 0.00
3:53 am 03:53 Clear 70 21.1 61 16.1 73 73 SSW 5 7 29.93 1014 10 16 0.00 0.00
4:53 am 04:53 Mostly Clear 71 21.7 60 15.6 68 68 SSW 7 11 29.93 1014 10 16 0.00 0.00
5:53 am 05:53 Mostly Sunny 70 21.1 60 15.6 71 71 SW 6 9 29.92 1013 10 16 0.00 0.00
6:53 am 06:53 Mostly Sunny 70 21.1 60 15.6 71 71 SSW 8 13 29.91 1013 10 16 0.00 0.00
7:53 am 07:53 Mostly Sunny 73 22.8 61 16.1 66 66 SSW 8 13 29.90 1013 10 16 0.00 0.00
8:53 am 08:53 Mostly Sunny 78 25.6 62 16.7 58 58 SW 13 20 29.89 1012 10 16 0.00 0.00
9:53 am 09:53 Mostly Sunny 80 26.7 63 17.2 56 56 SW 12 19 29.88 1012 10 16 0.00 0.00
10:53 am 10:53 Mostly Sunny 82 27.8 64 17.8 55 55 WSW 14 22 29.87 1012 10 16 0.00 0.00
11:53 am 11:53 Partly Cloudy 84 28.9 65 18.3 53 53 WSW 12 19 29.86 1011 10 16 0.00 0.00
12:53 pm 12:53 Partly Cloudy 86 30 67 19.4 53 53 SW 12 19 29.85 1011 10 16 0.00 0.00
1:34 pm 13:34 Mostly Cloudy with Nearby Thunderstorms 82 27.8 65 18.3 56 56 WSW 30 48 29.87 1012 10 16 0.00 0.00
1:53 pm 13:53 Mostly Cloudy 77 25 62 16.7 60 60 SW 13 20 29.89 1012 10 16 0.00 0.00
2:53 pm 14:53 Mostly Cloudy 76 24.4 63 17.2 64 64 WSW 8 13 29.87 1012 10 16 0.00 0.00
3:53 pm 15:53 Mostly Cloudy 80 26.7 64 17.8 58 58 WSW 9 15 29.84 1011 10 16 0.00 0.00
4:53 pm 16:53 Mostly Cloudy 81 27.2 65 18.3 58 58 WSW 9 15 29.83 1010 10 16 0.00 0.00
5:53 pm 17:53 Mostly Cloudy 82 27.8 68 20 63 63 W 8 13 29.84 1011 10 16 0.00 0.00
6:53 pm 18:53 Mostly Cloudy 83 28.3 70 21.1 65 65 SW 9 15 29.85 1011 10 16 0.00 0.00
7:53 pm 19:53 Mostly Cloudy 83 28.3 72 22.2 70 70 SW 8 13 29.86 1011 10 16 0.00 0.00
8:53 pm 20:53 Mostly Cloudy 82 27.8 72 22.2 72 72 WSW 8 13 29.85 1011 10 16 0.00 0.00
9:53 pm 21:53 Partly Cloudy 80 26.7 73 22.8 79 79 WSW 8 13 29.87 1011 10 16 0.00 0.00
10:53 pm 22:53 Partly Cloudy 79 26.1 73 22.8 82 82 W 8 13 29.87 1012 10 16 0.00 0.00
11:53 pm 23:53 Mostly Clear 77 25 71 21.7 82 82 WNW 5 7 29.88 1012 10 16 0.00 0.00

Powered by AerisWeather